Date,TemperatureHighF,TemperatureAvgF,TemperatureLowF,DewpointHighF,DewpointAvgF,DewpointLowF,HumidityHigh,HumidityAvg,HumidityLow,PressureMaxIn,PressureMinIn,WindSpeedMaxMPH,WindSpeedAvgMPH,GustSpeedMaxMPH,PrecipitationSumIn
2013-9-1,92.4,83.2,71.5,75.9,71.9,66.6,86,70,52,29.88,29.75,9,1,13,0.00
2013-9-2,88.5,79.7,71.8,72.6,65.9,60.4,88,65,41,29.99,29.87,13,2,13,0.00
2013-9-3,91.7,76.7,64.1,67.0,63.0,60.4,93,66,38,30.05,29.94,9,1,9,0.00
2013-9-4,94.7,78.5,65.1,72.9,65.4,60.6,89,66,40,30.11,30.01,8,0,8,0.00
2013-9-5,95.5,79.8,65.8,68.4,65.5,60.8,89,65,39,30.15,30.03,10,0,10,0.00
2013-9-6,97.0,80.5,67.0,69.7,66.1,61.8,85,64,38,30.10,29.95,9,0,9,0.00
2013-9-7,100.5,83.2,69.8,71.5,67.3,63.0,81,62,34,30.00,29.88,8,0,10,0.00
2013-9-8,99.7,85.1,72.5,72.2,68.7,65.4,81,60,36,29.94,29.83,10,1,10,0.00
2013-9-9,97.5,83.3,68.0,71.3,66.0,61.0,84,58,36,29.96,29.87,18,1,18,0.00
2013-9-10,97.2,80.6,68.3,70.7,66.1,62.6,84,64,36,30.08,29.93,13,1,13,0.00
2013-9-11,97.0,80.8,66.1,70.0,66.0,63.0,93,64,37,30.12,29.99,7,0,10,0.00
2013-9-12,96.3,78.1,69.5,72.1,69.1,65.9,93,76,41,30.07,29.96,18,1,18,0.31
2013-9-13,87.5,76.8,69.1,70.6,62.6,54.1,88,64,43,30.05,29.94,15,1,15,0.00
2013-9-14,88.1,73.4,60.7,65.4,59.5,54.5,85,63,45,30.04,29.92,10,0,10,0.00
2013-9-15,91.8,76.6,63.4,71.0,62.8,55.5,78,64,47,30.02,29.94,10,0,10,0.00
2013-9-16,88.3,77.0,71.5,70.4,68.4,67.2,91,76,52,30.16,30.00,13,1,13,0.01
2013-9-17,86.0,74.5,68.1,70.9,68.2,65.8,95,82,59,30.11,29.94,13,0,13,0.03
2013-9-18,95.5,80.2,70.2,75.5,70.8,66.6,94,75,50,29.98,29.84,12,0,12,0.00
2013-9-19,92.9,79.1,72.4,74.4,70.1,63.4,88,75,54,29.95,29.80,15,0,15,0.14
2013-9-20,72.2,68.4,61.1,68.5,63.0,55.7,96,84,61,29.99,29.91,16,1,16,0.41
2013-9-21,80.9,66.8,55.6,58.2,55.1,52.1,91,69,41,30.04,29.91,13,1,13,0.00
2013-9-22,82.2,65.9,51.5,58.2,53.3,48.7,95,67,37,29.98,29.83,11,0,11,0.00
2013-9-23,82.8,66.5,52.3,59.8,55.1,49.8,94,70,41,29.90,29.76,12,1,12,0.00
2013-9-24,83.2,70.1,60.4,59.3,57.0,54.3,84,65,43,29.90,29.84,14,2,16,0.00
2013-9-25,88.3,70.3,55.4,63.2,59.1,52.2,95,71,41,29.91,29.77,9,0,9,0.00
2013-9-26,95.0,75.9,60.2,66.4,61.3,56.9,93,64,35,29.89,29.79,11,1,11,0.00
2013-9-27,91.5,76.8,61.7,67.3,62.0,58.7,93,64,38,29.94,29.80,12,1,12,0.00
2013-9-28,79.2,68.0,57.3,69.4,62.5,54.9,95,83,67,30.09,29.82,14,1,14,1.03
2013-9-29,76.0,62.0,50.4,60.8,54.0,48.7,97,78,45,30.10,29.94,10,1,10,0.01
2013-9-30,84.0,66.1,49.9,62.7,56.4,48.0,97,74,43,29.95,29.81,9,0,9,0.00